Flag for U.S.A. Weather past 2 weeks in Garland, Texas, U.S.A.

Now
81 °F

Clear.


Feels Like: 85 °F
Forecast: 77 / 92 °F
Wind: 8 mph from South

Location: Mesquite Metro Airport

Current Time: Jul 5, 2015 at 12:30:44 AM

Latest Report: Jul 4, 2015 at 11:55 PM


Visibility: 10 mi

Pressure: 29.99 "Hg

Humidity: 74%

Dew point: 72 °F

Location of GarlandLocation

Historic Weather in Garland — Graph

°F

Garland temperature yesterday

Maximum temperature yesterday: 91 °F (at 3:50 PM)
Minimum temperature yesterday: 75 °F (at 6:50 AM)
Average temperature yesterday: 82 °F

Past Weeks' High & Low Weather Summary

 TemperatureHumidityPressure
High93 °F (Jun 22, 3:50 PM)100% (Jun 21, 8:50 AM)30.19 "Hg (Jun 21, 8:50 AM)
Low69 °F (Jun 28, 4:55 AM)24% (Jun 28, 5:50 PM)29.89 "Hg (Jul 2, 7:50 PM)
Average79 °F78%30.01 "Hg
* Reported Jun 19 11:15 PM — Jul 4 11:15 PM, Garland, Weather by CustomWeather, © 2015

Note: Actual official high and low records may vary slightly from our data, if they occured in-between our weather recording intervals... More about our weather records

Advertising

Garland weather history for previous 24 hours

 ConditionsComfort  
Time TempWeatherWind HumidityBarometerVisibility
11:15 PM
Sat, Jul 4
82 °FClear.9 mph72%29.99 "Hg10 mi
10:55 PM81 °FClear.8 mph74%29.97 "Hg10 mi
10:35 PM82 °FClear.8 mph71%29.97 "Hg7 mi
10:15 PM83 °FClear.9 mph69%29.96 "Hg10 mi
9:55 PM82 °FClear.6 mph69%29.95 "Hg10 mi
9:35 PM83 °FSunny.6 mph65%29.94 "Hg10 mi
9:15 PM84 °FSunny.6 mph65%29.94 "Hg10 mi
8:55 PM84 °FSunny.6 mph64%29.92 "Hg10 mi
8:15 PM86 °FSunny.5 mph59%29.91 "Hg10 mi
7:50 PM88 °FSunny.7 mph55%29.90 "Hg10 mi
6:50 PM90 °FSunny.6 mph52%29.91 "Hg10 mi
5:50 PM88 °FSunny.6 mph55%29.91 "Hg10 mi
4:50 PM90 °FScattered clouds.7 mph52%29.94 "Hg10 mi
3:50 PM91 °FScattered clouds.12 mph49%29.94 "Hg10 mi
2:50 PM90 °FBroken clouds.12 mph52%29.96 "Hg10 mi
1:50 PM90 °FBroken clouds.12 mph55%29.97 "Hg10 mi
12:50 PM90 °FScattered clouds.9 mph55%N/A7 mi
11:50 AM86 °FScattered clouds.9 mph62%30.00 "Hg7 mi
10:50 AM84 °FScattered clouds.10 mph70%29.99 "Hg7 mi
9:50 AM82 °FScattered clouds.9 mph74%30.00 "Hg7 mi
8:50 AM81 °FScattered clouds.9 mph79%29.99 "Hg7 mi
7:50 AM79 °FSunny.6 mph84%29.99 "Hg7 mi
6:50 AM75 °FClear.7 mph94%29.98 "Hg10 mi
6:15 AM76 °FPassing clouds.7 mph91%29.97 "Hg10 mi
5:55 AM76 °FPartly cloudy.7 mph91%29.96 "Hg7 mi
5:35 AM77 °FPassing clouds.6 mph89%29.96 "Hg10 mi
5:15 AM77 °FClear.5 mph87%29.96 "Hg10 mi
4:55 AM77 °FClear.5 mph87%29.95 "Hg10 mi
4:15 AM78 °FClear.7 mph84%29.94 "Hg10 mi
3:55 AM78 °FClear.6 mph83%29.94 "Hg10 mi
3:35 AM79 °FClear.7 mph82%29.94 "Hg10 mi
3:15 AM79 °FClear.8 mph81%29.94 "Hg10 mi
2:55 AM79 °FClear.9 mph81%29.94 "Hg10 mi
2:15 AM78 °FClear.9 mph83%29.94 "Hg10 mi
1:55 AM77 °FClear.7 mph84%29.94 "Hg7 mi
1:35 AM77 °FClear.7 mph85%29.94 "Hg10 mi
1:15 AM77 °FClear.7 mph84%29.94 "Hg10 mi
12:55 AM77 °FClear.7 mph85%29.94 "Hg7 mi
12:35 AM77 °FClear.6 mph83%29.95 "Hg10 mi
12:15 AM77 °FClear.7 mph83%29.94 "Hg7 mi
Weather by CustomWeather, © 2015

See weather overviewHow to use our weather pages